Regional Weather Roundup
Issued by NWS Grand Forks, ND

Home | Current Version | Previous Version | Graphics & Text | Print | Product List | Glossary On
Versions: 1 2 3 4 5 6 7 8 9 10 11 12 13 14 15 16 17 18 19 20 21 22 23 24 25 26 27 28 29 30 31 32 33 34 35 36 37 38 39 40 41 42 43 44 45 46 47 48 49 50
000
ASUS43 KFGF 270331
RWRFGF
PRAIRIE TO PINES  WEATHER ROUNDUP
NATIONAL WEATHER SERVICE EASTERN NORTH DAKOTA/GRAND FORKS ND
900 PM CST MON JAN 26 2015

 **SATELLITE DATA USED TO AUGMENT SKY COVER AT AUTOMATED STATIONS**
 *****  WEATHER ACROSS EASTERN NORTH DAKOTA  *****

CITY           SKY/WX    TMP DP  RH WIND       PRES   REMARKS
GRAND FORKS    PTCLDY    25  23  92 NE3       30.00R
GRAND FRKS AFB MOCLDY    26  23  89 NE2       30.01R
DEVILS LAKE    PTCLDY    30  27  86 CALM      29.97R
FARGO          CLOUDY    30  26  85 N5        30.00R
WAHPETON ARPT  CLOUDY    30  28  93 N5        30.00S
$$

 ***** WEATHER ACROSS CENTRAL AND WESTERN NORTH DAKOTA  *****

CITY           SKY/WX    TMP DP  RH WIND       PRES   REMARKS
BISMARCK       CLEAR     33  31  92 NE5       29.98S
MINOT          CLEAR     32  29  88 S6        29.93S
JAMESTOWN      CLEAR     31  29  92 CALM      29.98R
MINOT AFB      CLEAR     29  29 100 S8        29.92F WCI  22
GARRISON         N/A     33  31  92 E3        29.94F
WILLISTON      PTCLDY    34  30  85 CALM      29.89F
DICKINSON      PTCLDY    35  29  78 S7        29.90S
HETTINGER      CLEAR     35  30  82 S3        29.94F
$$

 *****  OTHER AIRPORT OBSERVATIONS IN OUR AREA  *****

CITY           SKY/WX    TMP DP  RH WIND       PRES   REMARKS
WALHALLA         N/A     23  23 100 S3        29.99S
GRAFTON AIRPOR NOT AVBL
VALLEY CITY AR FAIR      28  28 100 W6        29.99R WCI  22
CANDO          FAIR      27  27 100 SW6       29.97R WCI  20
CAVALIER APRT  FAIR      19  19 100 SW3       30.00S
GWINNER        CLEAR     32  32 100 NW6       30.01R
SHEYENNE NWR     N/A     27  26  96 CALM      29.95
ROLLA          FAIR      30  28  93 SW5       29.94S
 ***** THE ABOVE OBSERVATIONS ARE NON NWS ARE NOT QUALITY
       CONTROLLED AND MAY MIS-REPORT RAIN FOR SNOW...
$$

  *****  WEATHER ACROSS NORTHERN MINNESOTA  *****

CITY           SKY/WX    TMP DP  RH WIND       PRES   REMARKS
FLAG ISLAND    CLOUDY    25  21  86 N3        29.96R
WARROAD        CLOUDY    25  21  86 W5        29.98R WCI  19
ROSEAU         CLOUDY    27  21  80 CALM      29.98R
HALLOCK        CLOUDY    27  23  86 N5        30.00R WCI  21
THF RVR FALLS  CLOUDY    27  25  93 N6        29.99R WCI  20
BAUDETTE       CLOUDY    25  21  85 NW9       29.95R WCI  15
WASKISH        CLOUDY    28  25  86 CALM      29.96R
CROOKSTON      CLOUDY    27  25  93 N7        30.02R WCI  19
STEPHEN NDAWN    N/A     27  25  93 N3          N/A
GREENBUSH NDAW   N/A     25  23  93 N6          N/A  WCI  18
$$
  *****  WEATHER ACROSS CENTRAL AND WEST MINNESOTA  *****

CITY           SKY/WX    TMP DP  RH WIND       PRES   REMARKS
FOSSTON        CLOUDY    25  23  93 NW6       29.98R WCI  18
BEMIDJI        CLOUDY    28  25  86 NW9       29.95R WCI  20
PARK RAPIDS    CLOUDY    30  25  81 NW10      29.94R WCI  21
ELBOW LAKE     CLOUDY    28  27  95 N9        29.98S WCI  20
WADENA         CLOUDY    28  27  93 N6        29.95S WCI  22
DETROIT LAKES  CLOUDY    28  28 100 N8        29.98R WCI  20
MOORHEAD       MOCLDY    30  30 100 CALM      30.02R
FERGUS FALLS   CLOUDY    28  27  93 N6        30.02R WCI  22
MORRIS MN      CLEAR     30  28  93 NW10      29.98R WCI  21
STAPLES        CLOUDY    30  27  86 N8        29.96R WCI  23
$$
  *****  WEATHER ELSEWHERE ACROSS MINNESOTA  *****

CITY           SKY/WX    TMP DP  RH WIND       PRES   REMARKS
DULUTH         CLOUDY    28  23  81 N13       29.89R WCI  17
INTRNTL FALLS  CLOUDY    26  21  81 NW7       29.94R WCI  18
ELY            CLOUDY    23  21  93 CALM      29.91R
CLOQUET        CLOUDY    28  25  86 NW12G20   29.91R WCI  18
WHEATON        PTCLDY    28  27  93 N6        30.03R WCI  22
BRAINERD       CLOUDY    32  26  78 N12       29.94R WCI  23
HIBBING        CLOUDY    28  21  75 N13       29.92R WCI  17
ALEXANDRIA     CLOUDY    30  26  85 NW9       29.97R WCI  22
SAINT CLOUD    CLOUDY    34  29  82 NW9       29.93R
MINNEAPOLIS    CLOUDY    38  29  70 NW9       29.91R
$$

  *****  WEATHER ACROSS SOUTH DAKOTA  *****

CITY           SKY/WX    TMP DP  RH WIND       PRES   REMARKS
SIOUX FALLS    PTCLDY    33  30  88 CALM      30.00R
BROOKINGS      NOT AVBL
WATERTOWN      CLEAR     32  29  88 N9        29.98R WCI  24
HURON          MOCLDY    32  30  92 NW5       30.01R
SISSETON         N/A     30  29  96 N6        29.99R WCI  24
ABERDEEN       CLEAR     31  28  89 N7        30.01S WCI  24
MITCHELL       PTCLDY    36  31  82 W7        30.02R
PIERRE         CLEAR     35  27  72 CALM      29.98S
MOBRIDGE       PTCLDY    36  30  79 SE5       29.95S
RAPID CITY     CLEAR     37  27  67 CALM      29.99F
$$

  *****  SOME WEATHER IN NEARBY STATES *****

CITY           SKY/WX    TMP DP  RH WIND       PRES   REMARKS
GLASGOW MT     CLEAR     38  32  79 E9        29.86F
GREAT FALLS MT CLEAR     51  30  44 SW14      29.93R
CHEYENNE WY    PTCLDY    43  22  43 W13       30.23R
SCOTTSBLUFF NE CLEAR     43  31  62 NW9       30.12R
OMAHA NE       PTCLDY    42  33  70 NE6       30.01R
DES MOINES IA  MOCLDY    42  35  76 NW12      29.96R
DAVENPORT IA   CLOUDY    32  29  88 E3        29.88R
CHICAGO IL     LGT SNOW  25  24  96 S5        29.90S FOG     WCI  19
EAU CLAIRE WI  LGT SNOW  27  24  89 CALM      29.89R FOG
LA CROSSE WI   CLOUDY    31  27  85 CALM      29.89R
$$

  *****  SOME NATIONAL WEATHER *****

CITY           SKY/WX    TMP DP  RH WIND       PRES   REMARKS
LA GUARDIA NY  LGT SNOW  26  22  84 N18G26    29.76F FOG     WCI  13
RALEIGH NC     LGT RAIN  42  38  85 N6        29.69R
ATLANTA GA     MOCLDY    36  28  73 NW8       29.92F
NEW ORLEANS LA CLEAR     49  36  61 SW6       30.10F
OKLAHOMA CITY  CLEAR     57  34  41 NW6       30.07S
ALBUQUERQUE NM PTCLDY    49  27  42 NE9       30.33S
SALT LAKE CITY PTCLDY    37  32  82 SE3       30.23F
LOS ANGELES CA CLOUDY    59  52  77 S8        30.07R
BOISE ID       PTCLDY    36  32  85 CALM      30.16S
SEATTLE WA     PTCLDY    54  47  77 SW9       29.95R
$$

*** WEATHER ACROSS MANITOBA...SASKATCHEWAN AND ONTARIO ***
                ***ONTARIO***

CITY           SKY/WX    TMP DP  RH WIND       PRES   REMARKS
GERALDTON      FLURRIES  19  16  86 SE9       29.95R WCI   9
THUNDER BAY    FLURRIES  21  19  93 NW3       29.95R
SIOUX LOOKOUT  CLOUDY    21  19  93 SW2       29.90R
TORONTO        MOCLDY    14   3  62 NE12      30.01S WCI   0
BIG TROUT LK   CLEAR      0  -2  92 S6        29.88R WCI -12
PICKLE LAKE    NOT AVBL
DRYDEN         CLOUDY    21  21 100 W6        29.91R WCI  14
KENORA         LGT SNOW  19  19 100 W2        29.93R FOG
$$
                *** MANITOBA***

CITY           SKY/WX    TMP DP  RH WIND       PRES   REMARKS
BRANDON        CLEAR     23  21  93 W2        29.92F
DAUPHIN        CLEAR     30  27  86 SW10      29.88F WCI  21
ISLAND LAKE    FLURRIES  14  10  85 SW6       29.86S WCI   5
PILOT MOUND      N/A     23  21  93 SE6         N/A  WCI  16
THE PAS        CLEAR     18  16  93 SE10      29.78F WCI   6
THOMPSON       LGT SNOW  14  12  92 SW8       29.75F WCI   3
WINNIPEG       PTCLDY    19  18  93 S7        29.98S WCI  10
LYNN LAKE      LGT SNOW  25  25 100 SW7       29.66R WCI  17
CHURCHILL      FLURRIES   0  -4  85 S12       29.68F WCI -18
GILLAM         PTCLDY     7   3  85 S8        29.76F WCI  -6
$$
                ***SASKATCHEWAN***

CITY           SKY/WX    TMP DP  RH WIND       PRES   REMARKS
ESTEVAN        CLEAR     32  30  93 SE7       29.89
KINDERSLEY     PTCLDY    28  27  93 NE8       29.78F WCI  20
LLOYDMINSTER   CLOUDY    37  32  81 W9        29.78F
PRINCE ALBERT  PTCLDY    30  27  86 SW5       29.78S
REGINA         MOCLDY    32  30  93 SE8       29.85F WCI  25
YORKTON        CLEAR     28  27  93 SW12      29.86R WCI  18
N. BATTLEFORD  CLOUDY    34  30  86 NW5       29.81F
LA RONGE       MOCLDY    27  25  93 NW3       29.74R
SASKATOON      MOCLDY    34  30  86 S7        29.82F
SWIFT CURRENT  CLEAR     36  30  80 S8        29.79F
$$
NOTE: THESE ARE AUTOMATED STATIONS WITH LIMITED QUALITY CONTROL
      "FAIR" INDICATES FEW OR NO CLOUDS BELOW 12,000 FEET WITH NO
      SIGNIFICANT WEATHER AND/OR OBSTRUCTIONS TO VISIBILITY.
      SKY/WX - SKY CONDITION AND SIGNIFICANT WEATHER.
      TMP - AIR TEMPERATURE.    DP   - DEWPOINT TEMPERATURE.
      RH  - RELATIVE HUMIDITY.  PRES - PRESSURE.
      HX  - HEAT INDEX.         WCI  - WIND CHILL INDEX.
$


USA.gov is the U.S. government's official web portal to all federal, state and local government web resources and services.